Time,TemperatureF,DewpointF,PressureIn,WindDirection,WindDirectionDegrees,WindSpeedMPH,WindSpeedGustMPH,Humidity,HourlyPrecipIn,Conditions,Clouds,dailyrainin,SolarRadiationWatts/m^2,SoftwareType,DateUTC
2013-08-18 00:02:00,62.3,59.3,30.16,ESE,109,0.0,0.0,90,0.00,,,0.00,0,HR-IXP-WINDi_r2_v1.2,2013-08-18 05:02:00,
2013-08-18 00:07:00,62.3,59.6,30.16,ESE,109,0.0,0.0,91,0.00,,,0.00,0,HR-IXP-WINDi_r2_v1.2,2013-08-18 05:07:00,
2013-08-18 00:12:00,62.2,59.5,30.15,ESE,109,0.0,0.0,91,0.00,,,0.00,0,HR-IXP-WINDi_r2_v1.2,2013-08-18 05:12:00,
2013-08-18 00:17:00,62.2,59.5,30.15,ESE,109,0.0,0.0,91,0.00,,,0.00,0,HR-IXP-WINDi_r2_v1.2,2013-08-18 05:17:00,
2013-08-18 00:23:00,62.1,59.4,30.16,ESE,109,0.0,0.0,91,0.00,,,0.00,0,HR-IXP-WINDi_r2_v1.2,2013-08-18 05:23:00,
2013-08-18 00:28:00,62.1,59.4,30.16,ESE,109,0.0,0.0,91,0.00,,,0.00,0,HR-IXP-WINDi_r2_v1.2,2013-08-18 05:28:00,
2013-08-18 00:33:00,62.0,59.3,30.16,ESE,109,0.0,0.0,91,0.00,,,0.00,0,HR-IXP-WINDi_r2_v1.2,2013-08-18 05:33:00,
2013-08-18 00:38:00,61.9,59.2,30.16,ESE,109,0.0,0.0,91,0.00,,,0.00,0,HR-IXP-WINDi_r2_v1.2,2013-08-18 05:38:00,
2013-08-18 00:44:00,61.8,59.1,30.15,ESE,109,0.0,0.0,91,0.00,,,0.00,0,HR-IXP-WINDi_r2_v1.2,2013-08-18 05:44:00,
2013-08-18 00:49:00,61.7,59.0,30.15,ESE,109,0.0,1.0,91,0.00,,,0.00,0,HR-IXP-WINDi_r2_v1.2,2013-08-18 05:49:00,
2013-08-18 00:54:00,61.7,59.0,30.15,ESE,109,0.0,1.0,91,0.00,,,0.00,0,HR-IXP-WINDi_r2_v1.2,2013-08-18 05:54:00,
2013-08-18 00:59:00,61.6,58.9,30.15,ESE,109,0.0,0.0,91,0.00,,,0.00,0,HR-IXP-WINDi_r2_v1.2,2013-08-18 05:59:00,
2013-08-18 01:04:00,61.5,58.8,30.15,ESE,109,0.0,0.0,91,0.00,,,0.00,0,HR-IXP-WINDi_r2_v1.2,2013-08-18 06:04:00,
2013-08-18 01:09:00,61.4,58.7,30.15,East,99,0.0,0.0,91,0.00,,,0.00,0,HR-IXP-WINDi_r2_v1.2,2013-08-18 06:09:00,
2013-08-18 01:15:00,61.3,58.3,30.15,East,99,0.0,0.0,90,0.00,,,0.00,0,HR-IXP-WINDi_r2_v1.2,2013-08-18 06:15:00,
2013-08-18 01:20:00,61.2,58.2,30.15,East,99,0.0,0.0,90,0.00,,,0.00,0,HR-IXP-WINDi_r2_v1.2,2013-08-18 06:20:00,
2013-08-18 01:25:00,61.1,58.1,30.16,NE,49,0.0,2.0,90,0.00,,,0.00,0,HR-IXP-WINDi_r2_v1.2,2013-08-18 06:25:00,
2013-08-18 01:30:00,61.1,57.8,30.16,NE,49,0.0,2.0,89,0.00,,,0.00,0,HR-IXP-WINDi_r2_v1.2,2013-08-18 06:30:00,
2013-08-18 01:35:00,61.2,57.9,30.16,NE,49,0.0,1.0,89,0.00,,,0.00,0,HR-IXP-WINDi_r2_v1.2,2013-08-18 06:35:00,
2013-08-18 01:40:00,61.2,57.9,30.16,NE,49,0.0,1.0,89,0.00,,,0.00,0,HR-IXP-WINDi_r2_v1.2,2013-08-18 06:40:00,
2013-08-18 01:46:00,61.2,57.5,30.15,NE,49,0.0,1.0,88,0.00,,,0.00,0,HR-IXP-WINDi_r2_v1.2,2013-08-18 06:46:00,
2013-08-18 01:51:00,61.2,57.5,30.15,NE,49,0.0,1.0,88,0.00,,,0.00,0,HR-IXP-WINDi_r2_v1.2,2013-08-18 06:51:00,
2013-08-18 01:56:00,61.2,57.5,30.16,NE,49,0.0,2.0,88,0.00,,,0.00,0,HR-IXP-WINDi_r2_v1.2,2013-08-18 06:56:00,
2013-08-18 02:01:00,61.2,57.5,30.16,NE,49,0.0,2.0,88,0.00,,,0.00,0,HR-IXP-WINDi_r2_v1.2,2013-08-18 07:01:00,
2013-08-18 02:06:00,61.3,57.6,30.16,NE,56,0.0,4.0,88,0.00,,,0.00,0,HR-IXP-WINDi_r2_v1.2,2013-08-18 07:06:00,
2013-08-18 02:12:00,61.2,57.5,30.16,NE,56,0.0,4.0,88,0.00,,,0.00,0,HR-IXP-WINDi_r2_v1.2,2013-08-18 07:12:00,
2013-08-18 02:17:00,61.2,57.5,30.16,NE,56,0.0,1.0,88,0.00,,,0.00,0,HR-IXP-WINDi_r2_v1.2,2013-08-18 07:17:00,
2013-08-18 02:22:00,61.2,57.5,30.16,NE,56,0.0,1.0,88,0.00,,,0.00,0,HR-IXP-WINDi_r2_v1.2,2013-08-18 07:22:00,
2013-08-18 02:28:00,61.1,57.5,30.16,NE,56,0.0,1.0,88,0.00,,,0.00,0,HR-IXP-WINDi_r2_v1.2,2013-08-18 07:28:00,
2013-08-18 02:33:00,61.0,57.4,30.16,NE,56,0.0,1.0,88,0.00,,,0.00,0,HR-IXP-WINDi_r2_v1.2,2013-08-18 07:33:00,
2013-08-18 02:38:00,61.0,57.4,30.16,NE,56,0.0,1.0,88,0.00,,,0.00,0,HR-IXP-WINDi_r2_v1.2,2013-08-18 07:38:00,
2013-08-18 02:43:00,60.9,57.3,30.15,NE,56,0.0,1.0,88,0.00,,,0.00,0,HR-IXP-WINDi_r2_v1.2,2013-08-18 07:43:00,
2013-08-18 02:48:00,60.8,57.5,30.15,NE,56,0.0,0.0,89,0.00,,,0.00,0,HR-IXP-WINDi_r2_v1.2,2013-08-18 07:48:00,
2013-08-18 02:53:00,60.7,57.4,30.15,NE,56,0.0,0.0,89,0.00,,,0.00,0,HR-IXP-WINDi_r2_v1.2,2013-08-18 07:53:00,
2013-08-18 02:58:00,60.5,57.2,30.15,NE,56,0.0,0.0,89,0.00,,,0.00,0,HR-IXP-WINDi_r2_v1.2,2013-08-18 07:58:00,
2013-08-18 03:03:00,60.4,57.1,30.15,NE,56,0.0,0.0,89,0.00,,,0.00,0,HR-IXP-WINDi_r2_v1.2,2013-08-18 08:03:00,
2013-08-18 03:09:00,60.3,57.0,30.15,NE,56,0.0,0.0,89,0.00,,,0.00,0,HR-IXP-WINDi_r2_v1.2,2013-08-18 08:09:00,
2013-08-18 03:14:00,60.2,57.2,30.15,NE,56,0.0,0.0,90,0.00,,,0.00,0,HR-IXP-WINDi_r2_v1.2,2013-08-18 08:14:00,
2013-08-18 03:19:00,60.1,57.1,30.15,NE,56,0.0,0.0,90,0.00,,,0.00,0,HR-IXP-WINDi_r2_v1.2,2013-08-18 08:19:00,
2013-08-18 03:24:00,60.0,57.0,30.14,NE,56,0.0,0.0,90,0.00,,,0.00,0,HR-IXP-WINDi_r2_v1.2,2013-08-18 08:24:00,
2013-08-18 03:30:00,59.9,56.9,30.14,NE,56,0.0,0.0,90,0.00,,,0.00,0,HR-IXP-WINDi_r2_v1.2,2013-08-18 08:30:00,
2013-08-18 03:35:00,59.7,56.7,30.14,NE,56,0.0,0.0,90,0.00,,,0.00,0,HR-IXP-WINDi_r2_v1.2,2013-08-18 08:35:00,
2013-08-18 03:40:00,59.6,56.6,30.14,NE,56,0.0,0.0,90,0.00,,,0.00,0,HR-IXP-WINDi_r2_v1.2,2013-08-18 08:40:00,
2013-08-18 03:45:00,59.5,56.8,30.14,NE,56,0.0,0.0,91,0.00,,,0.00,0,HR-IXP-WINDi_r2_v1.2,2013-08-18 08:45:00,
2013-08-18 03:51:00,59.4,56.7,30.14,NE,56,0.0,0.0,91,0.00,,,0.00,0,HR-IXP-WINDi_r2_v1.2,2013-08-18 08:51:00,
2013-08-18 03:56:00,59.3,56.6,30.14,NE,56,0.0,0.0,91,0.00,,,0.00,0,HR-IXP-WINDi_r2_v1.2,2013-08-18 08:56:00,
2013-08-18 04:01:00,59.2,56.8,30.14,NE,56,0.0,0.0,92,0.00,,,0.00,0,HR-IXP-WINDi_r2_v1.2,2013-08-18 09:01:00,
2013-08-18 04:06:00,59.1,56.7,30.14,NE,56,0.0,0.0,92,0.00,,,0.00,0,HR-IXP-WINDi_r2_v1.2,2013-08-18 09:06:00,
2013-08-18 04:11:00,59.1,56.7,30.14,NE,56,0.0,0.0,92,0.00,,,0.00,0,HR-IXP-WINDi_r2_v1.2,2013-08-18 09:11:00,
2013-08-18 04:17:00,58.9,56.5,30.14,NE,56,0.0,0.0,92,0.00,,,0.00,0,HR-IXP-WINDi_r2_v1.2,2013-08-18 09:17:00,
2013-08-18 04:22:00,58.9,56.5,30.14,NE,56,0.0,0.0,92,0.00,,,0.00,0,HR-IXP-WINDi_r2_v1.2,2013-08-18 09:22:00,
2013-08-18 04:27:00,58.7,56.3,30.14,NE,56,0.0,0.0,92,0.00,,,0.00,0,HR-IXP-WINDi_r2_v1.2,2013-08-18 09:27:00,
2013-08-18 04:32:00,58.7,56.3,30.14,NE,56,0.0,0.0,92,0.00,,,0.00,0,HR-IXP-WINDi_r2_v1.2,2013-08-18 09:32:00,
2013-08-18 04:38:00,58.6,56.5,30.15,NE,56,0.0,0.0,93,0.00,,,0.00,0,HR-IXP-WINDi_r2_v1.2,2013-08-18 09:38:00,
2013-08-18 04:43:00,58.6,56.5,30.15,NE,56,0.0,0.0,93,0.00,,,0.00,0,HR-IXP-WINDi_r2_v1.2,2013-08-18 09:43:00,
2013-08-18 04:48:00,58.5,56.4,30.15,NE,56,0.0,0.0,93,0.00,,,0.00,0,HR-IXP-WINDi_r2_v1.2,2013-08-18 09:48:00,
2013-08-18 04:53:00,58.5,56.4,30.15,NE,56,0.0,0.0,93,0.00,,,0.00,0,HR-IXP-WINDi_r2_v1.2,2013-08-18 09:53:00,
2013-08-18 04:58:00,58.4,56.3,30.15,NE,56,0.0,0.0,93,0.00,,,0.00,0,HR-IXP-WINDi_r2_v1.2,2013-08-18 09:58:00,
2013-08-18 05:03:00,58.3,56.2,30.15,NE,56,0.0,0.0,93,0.00,,,0.00,0,HR-IXP-WINDi_r2_v1.2,2013-08-18 10:03:00,
2013-08-18 05:09:00,58.2,56.1,30.15,NE,56,0.0,0.0,93,0.00,,,0.00,0,HR-IXP-WINDi_r2_v1.2,2013-08-18 10:09:00,
2013-08-18 05:14:00,58.1,56.0,30.15,NE,56,0.0,0.0,93,0.00,,,0.00,0,HR-IXP-WINDi_r2_v1.2,2013-08-18 10:14:00,
2013-08-18 05:19:00,58.1,56.0,30.16,NE,56,0.0,0.0,93,0.00,,,0.00,0,HR-IXP-WINDi_r2_v1.2,2013-08-18 10:19:00,
2013-08-18 05:25:00,58.0,55.9,30.16,NE,56,0.0,0.0,93,0.00,,,0.00,0,HR-IXP-WINDi_r2_v1.2,2013-08-18 10:25:00,
2013-08-18 05:30:00,57.9,55.8,30.16,NE,56,0.0,0.0,93,0.00,,,0.00,0,HR-IXP-WINDi_r2_v1.2,2013-08-18 10:30:00,
2013-08-18 05:35:00,57.8,55.7,30.16,NE,56,0.0,0.0,93,0.00,,,0.00,0,HR-IXP-WINDi_r2_v1.2,2013-08-18 10:35:00,
2013-08-18 05:40:00,57.8,55.7,30.16,NE,56,0.0,0.0,93,0.00,,,0.00,0,HR-IXP-WINDi_r2_v1.2,2013-08-18 10:40:00,
2013-08-18 05:45:00,57.7,55.6,30.16,NE,56,0.0,0.0,93,0.00,,,0.00,0,HR-IXP-WINDi_r2_v1.2,2013-08-18 10:45:00,
2013-08-18 05:50:00,57.7,55.6,30.16,NE,56,0.0,0.0,93,0.00,,,0.00,0,HR-IXP-WINDi_r2_v1.2,2013-08-18 10:50:00,
2013-08-18 05:55:00,57.6,55.8,30.16,NE,56,0.0,0.0,94,0.00,,,0.00,0,HR-IXP-WINDi_r2_v1.2,2013-08-18 10:55:00,
2013-08-18 06:00:00,57.7,55.9,30.16,NE,56,0.0,0.0,94,0.00,,,0.00,0,HR-IXP-WINDi_r2_v1.2,2013-08-18 11:00:00,
2013-08-18 06:06:00,57.7,55.9,30.16,NE,56,0.0,0.0,94,0.00,,,0.00,0,HR-IXP-WINDi_r2_v1.2,2013-08-18 11:06:00,
2013-08-18 06:11:00,57.6,55.8,30.17,NE,56,0.0,0.0,94,0.00,,,0.00,5,HR-IXP-WINDi_r2_v1.2,2013-08-18 11:11:00,
2013-08-18 06:16:00,57.6,55.8,30.17,NE,56,0.0,0.0,94,0.00,,,0.00,9,HR-IXP-WINDi_r2_v1.2,2013-08-18 11:16:00,
2013-08-18 06:21:00,57.5,55.7,30.17,NE,56,0.0,0.0,94,0.00,,,0.00,12,HR-IXP-WINDi_r2_v1.2,2013-08-18 11:21:00,
2013-08-18 06:26:00,57.6,55.8,30.17,NE,56,0.0,0.0,94,0.00,,,0.00,14,HR-IXP-WINDi_r2_v1.2,2013-08-18 11:26:00,
2013-08-18 06:31:00,57.6,56.1,30.17,NE,56,0.0,0.0,95,0.00,,,0.00,18,HR-IXP-WINDi_r2_v1.2,2013-08-18 11:31:00,
2013-08-18 06:36:00,57.6,56.1,30.17,NE,56,0.0,0.0,95,0.00,,,0.00,21,HR-IXP-WINDi_r2_v1.2,2013-08-18 11:36:00,
2013-08-18 06:41:00,57.8,56.3,30.17,NE,56,0.0,0.0,95,0.00,,,0.00,25,HR-IXP-WINDi_r2_v1.2,2013-08-18 11:41:00,
2013-08-18 06:47:00,57.9,56.4,30.17,NE,56,0.0,0.0,95,0.00,,,0.00,28,HR-IXP-WINDi_r2_v1.2,2013-08-18 11:47:00,
2013-08-18 06:52:00,58.0,56.5,30.18,NE,56,0.0,0.0,95,0.00,,,0.00,32,HR-IXP-WINDi_r2_v1.2,2013-08-18 11:52:00,
2013-08-18 06:57:00,58.2,56.7,30.18,NE,56,0.0,0.0,95,0.00,,,0.00,35,HR-IXP-WINDi_r2_v1.2,2013-08-18 11:57:00,
2013-08-18 07:02:00,58.3,56.8,30.18,NE,56,0.0,1.0,95,0.00,,,0.00,39,HR-IXP-WINDi_r2_v1.2,2013-08-18 12:02:00,
2013-08-18 07:08:00,58.5,57.0,30.18,NE,56,0.0,1.0,95,0.00,,,0.00,40,HR-IXP-WINDi_r2_v1.2,2013-08-18 12:08:00,
2013-08-18 07:13:00,58.6,57.1,30.18,NE,56,0.0,1.0,95,0.00,,,0.00,44,HR-IXP-WINDi_r2_v1.2,2013-08-18 12:13:00,
2013-08-18 07:18:00,58.9,57.4,30.18,NE,56,0.0,1.0,95,0.00,,,0.00,46,HR-IXP-WINDi_r2_v1.2,2013-08-18 12:18:00,
2013-08-18 07:23:00,59.3,57.8,30.18,NE,56,0.0,1.0,95,0.00,,,0.00,49,HR-IXP-WINDi_r2_v1.2,2013-08-18 12:23:00,
2013-08-18 07:28:00,59.7,58.2,30.18,NE,56,0.0,1.0,95,0.00,,,0.00,51,HR-IXP-WINDi_r2_v1.2,2013-08-18 12:28:00,
2013-08-18 07:33:00,59.9,58.4,30.18,NE,56,0.0,2.0,95,0.00,,,0.00,54,HR-IXP-WINDi_r2_v1.2,2013-08-18 12:33:00,
2013-08-18 07:38:00,60.3,58.5,30.18,NE,56,0.0,3.0,94,0.00,,,0.00,56,HR-IXP-WINDi_r2_v1.2,2013-08-18 12:38:00,
2013-08-18 07:43:00,60.7,58.6,30.18,NE,56,0.0,3.0,93,0.00,,,0.00,58,HR-IXP-WINDi_r2_v1.2,2013-08-18 12:43:00,
2013-08-18 07:49:00,61.3,58.9,30.18,ENE,61,0.0,3.0,92,0.00,,,0.00,62,HR-IXP-WINDi_r2_v1.2,2013-08-18 12:49:00,
2013-08-18 07:54:00,61.9,58.9,30.18,ENE,61,0.0,3.0,90,0.00,,,0.00,63,HR-IXP-WINDi_r2_v1.2,2013-08-18 12:54:00,
2013-08-18 07:59:00,62.5,58.8,30.18,ENE,65,0.0,4.0,88,0.00,,,0.00,65,HR-IXP-WINDi_r2_v1.2,2013-08-18 12:59:00,
2013-08-18 08:04:00,63.3,59.3,30.18,NE,54,0.0,4.0,87,0.00,,,0.00,69,HR-IXP-WINDi_r2_v1.2,2013-08-18 13:04:00,
2013-08-18 08:09:00,64.0,59.7,30.18,ENE,76,3.0,4.0,86,0.00,,,0.00,70,HR-IXP-WINDi_r2_v1.2,2013-08-18 13:09:00,
2013-08-18 08:14:00,64.7,60.0,30.18,SSE,161,1.0,4.0,85,0.00,,,0.00,72,HR-IXP-WINDi_r2_v1.2,2013-08-18 13:14:00,
2013-08-18 08:20:00,65.2,60.5,30.19,NE,36,2.0,4.0,85,0.00,,,0.00,76,HR-IXP-WINDi_r2_v1.2,2013-08-18 13:20:00,
2013-08-18 08:25:00,65.7,60.7,30.19,ENE,71,0.0,5.0,84,0.00,,,0.00,350,HR-IXP-WINDi_r2_v1.2,2013-08-18 13:25:00,
2013-08-18 08:30:00,66.1,61.4,30.19,SSE,164,2.0,5.0,85,0.00,,,0.00,364,HR-IXP-WINDi_r2_v1.2,2013-08-18 13:30:00,
2013-08-18 08:35:00,66.5,61.5,30.19,ENE,63,0.0,8.0,84,0.00,,,0.00,381,HR-IXP-WINDi_r2_v1.2,2013-08-18 13:35:00,
2013-08-18 08:40:00,66.7,61.3,30.19,ENE,69,0.0,8.0,83,0.00,,,0.00,397,HR-IXP-WINDi_r2_v1.2,2013-08-18 13:40:00,
2013-08-18 08:46:00,67.0,61.9,30.19,SE,134,2.0,5.0,84,0.00,,,0.00,410,HR-IXP-WINDi_r2_v1.2,2013-08-18 13:46:00,
2013-08-18 08:51:00,67.2,62.1,30.19,SE,136,2.0,5.0,84,0.00,,,0.00,431,HR-IXP-WINDi_r2_v1.2,2013-08-18 13:51:00,
2013-08-18 08:56:00,67.5,62.1,30.19,SSE,163,0.0,5.0,83,0.00,,,0.00,446,HR-IXP-WINDi_r2_v1.2,2013-08-18 13:56:00,
2013-08-18 09:01:00,67.8,62.4,30.19,SSE,148,1.0,5.0,83,0.00,,,0.00,464,HR-IXP-WINDi_r2_v1.2,2013-08-18 14:01:00,
2013-08-18 09:06:00,68.0,62.6,30.19,ENE,61,1.0,5.0,83,0.00,,,0.00,483,HR-IXP-WINDi_r2_v1.2,2013-08-18 14:06:00,
2013-08-18 09:12:00,68.3,62.9,30.19,SE,128,0.0,5.0,83,0.00,,,0.00,503,HR-IXP-WINDi_r2_v1.2,2013-08-18 14:12:00,
2013-08-18 09:17:00,68.5,63.1,30.19,SE,144,2.0,6.0,83,0.00,,,0.00,517,HR-IXP-WINDi_r2_v1.2,2013-08-18 14:17:00,
2013-08-18 09:22:00,68.9,63.5,30.19,SE,146,1.0,6.0,83,0.00,,,0.00,533,HR-IXP-WINDi_r2_v1.2,2013-08-18 14:22:00,
2013-08-18 09:27:00,69.3,63.5,30.19,SE,146,0.0,4.0,82,0.00,,,0.00,547,HR-IXP-WINDi_r2_v1.2,2013-08-18 14:27:00,
2013-08-18 09:32:00,69.7,63.5,30.19,East,86,0.0,4.0,81,0.00,,,0.00,564,HR-IXP-WINDi_r2_v1.2,2013-08-18 14:32:00,
2013-08-18 09:37:00,70.2,64.0,30.19,ESE,117,0.0,4.0,81,0.00,,,0.00,577,HR-IXP-WINDi_r2_v1.2,2013-08-18 14:37:00,
2013-08-18 09:43:00,70.7,64.2,30.19,East,100,0.0,2.0,80,0.00,,,0.00,591,HR-IXP-WINDi_r2_v1.2,2013-08-18 14:43:00,
2013-08-18 09:48:00,71.3,64.7,30.19,East,88,0.0,2.0,80,0.00,,,0.00,608,HR-IXP-WINDi_r2_v1.2,2013-08-18 14:48:00,
2013-08-18 09:53:00,71.9,63.9,30.18,ENE,66,2.0,3.0,76,0.00,,,0.00,619,HR-IXP-WINDi_r2_v1.2,2013-08-18 14:53:00,
2013-08-18 09:58:00,72.4,64.0,30.18,WSW,242,0.0,3.0,75,0.00,,,0.00,629,HR-IXP-WINDi_r2_v1.2,2013-08-18 14:58:00,
2013-08-18 10:03:00,72.8,63.6,30.18,SE,146,4.0,4.0,73,0.00,,,0.00,649,HR-IXP-WINDi_r2_v1.2,2013-08-18 15:03:00,
2013-08-18 10:09:00,73.5,64.3,30.18,ESE,112,1.0,4.0,73,0.00,,,0.00,654,HR-IXP-WINDi_r2_v1.2,2013-08-18 15:09:00,
2013-08-18 10:14:00,74.0,63.5,30.18,NE,43,0.0,4.0,70,0.00,,,0.00,668,HR-IXP-WINDi_r2_v1.2,2013-08-18 15:14:00,
2013-08-18 10:19:00,74.5,64.4,30.18,ENE,58,0.0,5.0,71,0.00,,,0.00,679,HR-IXP-WINDi_r2_v1.2,2013-08-18 15:19:00,
2013-08-18 10:24:00,74.9,63.6,30.18,SE,138,2.0,5.0,68,0.00,,,0.00,691,HR-IXP-WINDi_r2_v1.2,2013-08-18 15:24:00,
2013-08-18 10:29:00,75.5,63.3,30.18,NNE,19,2.0,6.0,66,0.00,,,0.00,701,HR-IXP-WINDi_r2_v1.2,2013-08-18 15:29:00,
2013-08-18 10:35:00,75.9,63.7,30.18,NE,56,0.0,6.0,66,0.00,,,0.00,714,HR-IXP-WINDi_r2_v1.2,2013-08-18 15:35:00,
2013-08-18 10:40:00,76.3,62.7,30.18,ENE,58,3.0,6.0,63,0.00,,,0.00,719,HR-IXP-WINDi_r2_v1.2,2013-08-18 15:40:00,
2013-08-18 10:45:00,76.6,63.9,30.18,ESE,119,0.0,6.0,65,0.00,,,0.00,731,HR-IXP-WINDi_r2_v1.2,2013-08-18 15:45:00,
2013-08-18 10:50:00,76.9,64.2,30.18,NE,39,0.0,6.0,65,0.00,,,0.00,742,HR-IXP-WINDi_r2_v1.2,2013-08-18 15:50:00,
2013-08-18 10:56:00,77.2,64.0,30.18,SE,136,2.0,5.0,64,0.00,,,0.00,754,HR-IXP-WINDi_r2_v1.2,2013-08-18 15:56:00,
2013-08-18 11:01:00,77.6,63.5,30.18,ENE,62,0.0,5.0,62,0.00,,,0.00,763,HR-IXP-WINDi_r2_v1.2,2013-08-18 16:01:00,
2013-08-18 11:06:00,77.8,63.7,30.17,East,98,0.0,3.0,62,0.00,,,0.00,768,HR-IXP-WINDi_r2_v1.2,2013-08-18 16:06:00,
2013-08-18 11:11:00,78.2,63.1,30.17,ESE,106,0.0,6.0,60,0.00,,,0.00,782,HR-IXP-WINDi_r2_v1.2,2013-08-18 16:11:00,
2013-08-18 11:16:00,78.6,62.0,30.17,NNE,17,1.0,6.0,57,0.00,,,0.00,780,HR-IXP-WINDi_r2_v1.2,2013-08-18 16:16:00,
2013-08-18 11:21:00,78.7,62.1,30.17,North,5,1.0,6.0,57,0.00,,,0.00,348,HR-IXP-WINDi_r2_v1.2,2013-08-18 16:21:00,
2013-08-18 11:27:00,79.1,64.4,30.17,NE,49,0.0,6.0,61,0.00,,,0.00,396,HR-IXP-WINDi_r2_v1.2,2013-08-18 16:27:00,
2013-08-18 11:32:00,79.5,62.4,30.17,ESE,111,1.0,6.0,56,0.00,,,0.00,860,HR-IXP-WINDi_r2_v1.2,2013-08-18 16:32:00,
2013-08-18 11:37:00,79.8,63.7,30.17,ENE,68,3.0,6.0,58,0.00,,,0.00,849,HR-IXP-WINDi_r2_v1.2,2013-08-18 16:37:00,
2013-08-18 11:42:00,79.9,63.3,30.17,ENE,61,1.0,7.0,57,0.00,,,0.00,854,HR-IXP-WINDi_r2_v1.2,2013-08-18 16:42:00,
2013-08-18 11:47:00,80.1,62.4,30.17,ESE,111,0.0,7.0,55,0.00,,,0.00,865,HR-IXP-WINDi_r2_v1.2,2013-08-18 16:47:00,
2013-08-18 11:53:00,79.9,62.8,30.16,ESE,104,6.0,7.0,56,0.00,,,0.00,875,HR-IXP-WINDi_r2_v1.2,2013-08-18 16:53:00,
2013-08-18 11:58:00,79.9,63.3,30.16,East,88,1.0,7.0,57,0.00,,,0.00,870,HR-IXP-WINDi_r2_v1.2,2013-08-18 16:58:00,
2013-08-18 12:03:00,80.3,62.6,30.16,West,264,0.0,7.0,55,0.00,,,0.00,849,HR-IXP-WINDi_r2_v1.2,2013-08-18 17:03:00,
2013-08-18 12:09:00,80.4,62.2,30.16,ENE,69,0.0,3.0,54,0.00,,,0.00,884,HR-IXP-WINDi_r2_v1.2,2013-08-18 17:09:00,
2013-08-18 12:14:00,80.5,62.8,30.16,ENE,70,3.0,3.0,55,0.00,,,0.00,888,HR-IXP-WINDi_r2_v1.2,2013-08-18 17:14:00,
2013-08-18 12:19:00,81.0,63.3,30.16,South,173,0.0,4.0,55,0.00,,,0.00,889,HR-IXP-WINDi_r2_v1.2,2013-08-18 17:19:00,
2013-08-18 12:24:00,80.7,61.4,30.16,ENE,59,2.0,8.0,52,0.00,,,0.00,863,HR-IXP-WINDi_r2_v1.2,2013-08-18 17:24:00,
2013-08-18 12:29:00,80.7,62.5,30.16,SSE,161,2.0,8.0,54,0.00,,,0.00,895,HR-IXP-WINDi_r2_v1.2,2013-08-18 17:29:00,
2013-08-18 12:34:00,80.4,63.2,30.15,NE,56,0.0,5.0,56,0.00,,,0.00,932,HR-IXP-WINDi_r2_v1.2,2013-08-18 17:34:00,
2013-08-18 12:40:00,80.6,62.4,30.15,NE,46,0.0,5.0,54,0.00,,,0.00,186,HR-IXP-WINDi_r2_v1.2,2013-08-18 17:40:00,
2013-08-18 12:45:00,80.4,61.7,30.15,SSE,149,0.0,2.0,53,0.00,,,0.00,900,HR-IXP-WINDi_r2_v1.2,2013-08-18 17:45:00,
2013-08-18 12:50:00,80.5,62.3,30.15,NE,38,1.0,4.0,54,0.00,,,0.00,879,HR-IXP-WINDi_r2_v1.2,2013-08-18 17:50:00,
2013-08-18 12:55:00,80.7,61.4,30.15,ESE,104,0.0,4.0,52,0.00,,,0.00,926,HR-IXP-WINDi_r2_v1.2,2013-08-18 17:55:00,
2013-08-18 13:00:00,81.1,62.3,30.15,SSE,151,0.0,5.0,53,0.00,,,0.00,155,HR-IXP-WINDi_r2_v1.2,2013-08-18 18:00:00,
2013-08-18 13:05:00,80.1,61.9,30.15,SSE,165,2.0,5.0,54,0.00,,,0.00,178,HR-IXP-WINDi_r2_v1.2,2013-08-18 18:05:00,
2013-08-18 13:11:00,80.0,60.7,30.15,SSE,155,0.0,4.0,52,0.00,,,0.00,872,HR-IXP-WINDi_r2_v1.2,2013-08-18 18:11:00,
2013-08-18 13:16:00,80.3,61.6,30.14,SSE,150,4.0,6.0,53,0.00,,,0.00,863,HR-IXP-WINDi_r2_v1.2,2013-08-18 18:16:00,
2013-08-18 13:21:00,80.6,61.3,30.14,East,90,2.0,7.0,52,0.00,,,0.00,875,HR-IXP-WINDi_r2_v1.2,2013-08-18 18:21:00,
2013-08-18 13:26:00,80.5,60.7,30.14,SE,142,0.0,7.0,51,0.00,,,0.00,877,HR-IXP-WINDi_r2_v1.2,2013-08-18 18:26:00,
2013-08-18 13:32:00,80.6,62.4,30.14,East,80,0.0,6.0,54,0.00,,,0.00,856,HR-IXP-WINDi_r2_v1.2,2013-08-18 18:32:00,
2013-08-18 13:37:00,81.1,63.4,30.14,ENE,62,1.0,5.0,55,0.00,,,0.00,779,HR-IXP-WINDi_r2_v1.2,2013-08-18 18:37:00,
2013-08-18 13:42:00,80.7,59.7,30.14,South,190,0.0,6.0,49,0.00,,,0.00,482,HR-IXP-WINDi_r2_v1.2,2013-08-18 18:42:00,
2013-08-18 13:47:00,80.5,62.3,30.14,ESE,103,1.0,6.0,54,0.00,,,0.00,330,HR-IXP-WINDi_r2_v1.2,2013-08-18 18:47:00,
2013-08-18 13:52:00,80.3,61.0,30.13,ENE,59,0.0,5.0,52,0.00,,,0.00,227,HR-IXP-WINDi_r2_v1.2,2013-08-18 18:52:00,
2013-08-18 13:57:00,80.1,60.8,30.13,SSE,150,2.0,6.0,52,0.00,,,0.00,146,HR-IXP-WINDi_r2_v1.2,2013-08-18 18:57:00,
2013-08-18 14:02:00,79.8,60.6,30.13,ESE,113,0.0,6.0,52,0.00,,,0.00,243,HR-IXP-WINDi_r2_v1.2,2013-08-18 19:02:00,
2013-08-18 14:07:00,79.6,60.4,30.13,NNE,32,1.0,5.0,52,0.00,,,0.00,90,HR-IXP-WINDi_r2_v1.2,2013-08-18 19:07:00,
2013-08-18 14:13:00,79.5,60.8,30.13,South,180,7.0,7.0,53,0.00,,,0.00,151,HR-IXP-WINDi_r2_v1.2,2013-08-18 19:13:00,
2013-08-18 14:18:00,79.2,61.1,30.13,East,87,0.0,7.0,54,0.00,,,0.00,176,HR-IXP-WINDi_r2_v1.2,2013-08-18 19:18:00,
2013-08-18 14:23:00,78.9,59.7,30.13,South,182,0.0,7.0,52,0.00,,,0.00,172,HR-IXP-WINDi_r2_v1.2,2013-08-18 19:23:00,
2013-08-18 14:28:00,78.8,60.7,30.12,SSE,166,2.0,6.0,54,0.00,,,0.00,118,HR-IXP-WINDi_r2_v1.2,2013-08-18 19:28:00,
2013-08-18 14:33:00,78.6,60.0,30.12,SSW,195,0.0,6.0,53,0.00,,,0.00,114,HR-IXP-WINDi_r2_v1.2,2013-08-18 19:33:00,
2013-08-18 14:39:00,78.6,59.5,30.12,SSE,147,0.0,4.0,52,0.00,,,0.00,79,HR-IXP-WINDi_r2_v1.2,2013-08-18 19:39:00,
2013-08-18 14:44:00,78.3,59.2,30.12,SE,144,0.0,1.0,52,0.00,,,0.00,127,HR-IXP-WINDi_r2_v1.2,2013-08-18 19:44:00,
2013-08-18 14:49:00,78.4,59.8,30.12,ENE,71,0.0,2.0,53,0.00,,,0.00,134,HR-IXP-WINDi_r2_v1.2,2013-08-18 19:49:00,
2013-08-18 14:54:00,78.7,60.6,30.12,ESE,111,4.0,7.0,54,0.00,,,0.00,125,HR-IXP-WINDi_r2_v1.2,2013-08-18 19:54:00,
2013-08-18 14:59:00,78.9,59.2,30.12,SE,140,2.0,8.0,51,0.00,,,0.00,111,HR-IXP-WINDi_r2_v1.2,2013-08-18 19:59:00,
2013-08-18 15:04:00,78.9,58.6,30.11,South,182,0.0,8.0,50,0.00,,,0.00,160,HR-IXP-WINDi_r2_v1.2,2013-08-18 20:04:00,
2013-08-18 15:09:00,78.9,59.7,30.11,NW,309,0.0,4.0,52,0.00,,,0.00,105,HR-IXP-WINDi_r2_v1.2,2013-08-18 20:09:00,
2013-08-18 15:15:00,79.1,61.0,30.11,SSE,155,0.0,2.0,54,0.00,,,0.00,172,HR-IXP-WINDi_r2_v1.2,2013-08-18 20:15:00,
2013-08-18 15:20:00,79.4,61.3,30.11,South,171,0.0,5.0,54,0.00,,,0.00,214,HR-IXP-WINDi_r2_v1.2,2013-08-18 20:20:00,
2013-08-18 15:25:00,79.8,61.6,30.11,SE,136,0.0,5.0,54,0.00,,,0.00,107,HR-IXP-WINDi_r2_v1.2,2013-08-18 20:25:00,
2013-08-18 15:30:00,80.1,61.4,30.11,SSE,155,2.0,5.0,53,0.00,,,0.00,109,HR-IXP-WINDi_r2_v1.2,2013-08-18 20:30:00,
2013-08-18 15:35:00,80.4,61.1,30.11,ESE,111,0.0,5.0,52,0.00,,,0.00,97,HR-IXP-WINDi_r2_v1.2,2013-08-18 20:35:00,
2013-08-18 15:40:00,80.4,61.1,30.11,SE,138,0.0,5.0,52,0.00,,,0.00,109,HR-IXP-WINDi_r2_v1.2,2013-08-18 20:40:00,
2013-08-18 15:46:00,80.4,61.7,30.11,South,169,0.0,5.0,53,0.00,,,0.00,118,HR-IXP-WINDi_r2_v1.2,2013-08-18 20:46:00,
2013-08-18 15:51:00,80.2,60.4,30.10,NW,323,0.0,5.0,51,0.00,,,0.00,111,HR-IXP-WINDi_r2_v1.2,2013-08-18 20:51:00,
2013-08-18 15:56:00,80.1,61.9,30.10,SSE,166,4.0,4.0,54,0.00,,,0.00,130,HR-IXP-WINDi_r2_v1.2,2013-08-18 20:56:00,
2013-08-18 16:01:00,80.2,60.9,30.10,SE,146,0.0,4.0,52,0.00,,,0.00,137,HR-IXP-WINDi_r2_v1.2,2013-08-18 21:01:00,
2013-08-18 16:06:00,80.3,61.0,30.10,SSE,153,1.0,4.0,52,0.00,,,0.00,116,HR-IXP-WINDi_r2_v1.2,2013-08-18 21:06:00,
2013-08-18 16:11:00,80.3,61.0,30.10,SE,132,2.0,4.0,52,0.00,,,0.00,98,HR-IXP-WINDi_r2_v1.2,2013-08-18 21:11:00,
2013-08-18 16:17:00,80.4,61.7,30.10,SE,138,0.0,4.0,53,0.00,,,0.00,91,HR-IXP-WINDi_r2_v1.2,2013-08-18 21:17:00,
2013-08-18 16:22:00,80.6,60.8,30.09,WNW,303,0.0,4.0,51,0.00,,,0.00,107,HR-IXP-WINDi_r2_v1.2,2013-08-18 21:22:00,
2013-08-18 16:27:00,81.0,61.7,30.09,NW,316,1.0,4.0,52,0.00,,,0.00,114,HR-IXP-WINDi_r2_v1.2,2013-08-18 21:27:00,
2013-08-18 16:32:00,81.3,61.9,30.10,WNW,286,3.0,4.0,52,0.00,,,0.00,466,HR-IXP-WINDi_r2_v1.2,2013-08-18 21:32:00,
2013-08-18 16:37:00,81.4,63.1,30.10,WNW,286,2.0,4.0,54,0.00,,,0.00,459,HR-IXP-WINDi_r2_v1.2,2013-08-18 21:37:00,
2013-08-18 16:43:00,81.3,63.0,30.10,WNW,287,3.0,4.0,54,0.00,,,0.00,459,HR-IXP-WINDi_r2_v1.2,2013-08-18 21:43:00,
2013-08-18 16:48:00,81.2,64.0,30.10,WNW,295,0.0,3.0,56,0.00,,,0.00,269,HR-IXP-WINDi_r2_v1.2,2013-08-18 21:48:00,
2013-08-18 16:53:00,81.1,63.9,30.09,WNW,296,0.0,3.0,56,0.00,,,0.00,413,HR-IXP-WINDi_r2_v1.2,2013-08-18 21:53:00,
2013-08-18 16:58:00,81.0,64.8,30.09,WNW,296,1.0,2.0,58,0.00,,,0.00,227,HR-IXP-WINDi_r2_v1.2,2013-08-18 21:58:00,
2013-08-18 17:03:00,80.9,63.7,30.09,WNW,296,0.0,2.0,56,0.00,,,0.00,392,HR-IXP-WINDi_r2_v1.2,2013-08-18 22:03:00,
2013-08-18 17:09:00,80.3,63.1,30.09,NW,316,4.0,6.0,56,0.00,,,0.00,295,HR-IXP-WINDi_r2_v1.2,2013-08-18 22:09:00,
2013-08-18 17:14:00,79.9,63.3,30.09,West,275,0.0,6.0,57,0.00,,,0.00,142,HR-IXP-WINDi_r2_v1.2,2013-08-18 22:14:00,
2013-08-18 17:19:00,79.7,62.6,30.09,WNW,285,0.0,5.0,56,0.00,,,0.00,207,HR-IXP-WINDi_r2_v1.2,2013-08-18 22:19:00,
2013-08-18 17:24:00,79.3,62.7,30.09,WNW,286,0.0,2.0,57,0.00,,,0.00,149,HR-IXP-WINDi_r2_v1.2,2013-08-18 22:24:00,
2013-08-18 17:29:00,79.1,63.0,30.09,WNW,286,0.0,2.0,58,0.00,,,0.00,81,HR-IXP-WINDi_r2_v1.2,2013-08-18 22:29:00,
2013-08-18 17:34:00,78.9,62.8,30.09,WNW,286,0.0,1.0,58,0.00,,,0.00,65,HR-IXP-WINDi_r2_v1.2,2013-08-18 22:34:00,
2013-08-18 17:40:00,78.5,62.4,30.09,WNW,286,0.0,1.0,58,0.00,,,0.00,121,HR-IXP-WINDi_r2_v1.2,2013-08-18 22:40:00,
2013-08-18 17:45:00,78.2,62.6,30.09,East,98,0.0,4.0,59,0.00,,,0.00,84,HR-IXP-WINDi_r2_v1.2,2013-08-18 22:45:00,
2013-08-18 17:50:00,78.0,62.0,30.09,East,93,0.0,4.0,58,0.00,,,0.00,134,HR-IXP-WINDi_r2_v1.2,2013-08-18 22:50:00,
2013-08-18 17:55:00,77.6,61.6,30.09,East,84,0.0,1.0,58,0.00,,,0.00,83,HR-IXP-WINDi_r2_v1.2,2013-08-18 22:55:00,
2013-08-18 18:01:00,77.3,62.3,30.09,SW,216,0.0,1.0,60,0.00,,,0.00,56,HR-IXP-WINDi_r2_v1.2,2013-08-18 23:01:00,
2013-08-18 18:06:00,77.1,62.1,30.09,West,275,0.0,3.0,60,0.00,,,0.00,51,HR-IXP-WINDi_r2_v1.2,2013-08-18 23:06:00,
2013-08-18 18:11:00,76.7,62.2,30.09,West,275,0.0,3.0,61,0.00,,,0.00,49,HR-IXP-WINDi_r2_v1.2,2013-08-18 23:11:00,
2013-08-18 18:16:00,76.4,61.4,30.09,West,275,0.0,1.0,60,0.00,,,0.00,47,HR-IXP-WINDi_r2_v1.2,2013-08-18 23:16:00,
2013-08-18 18:22:00,76.0,61.5,30.09,West,279,0.0,1.0,61,0.00,,,0.00,42,HR-IXP-WINDi_r2_v1.2,2013-08-18 23:22:00,
2013-08-18 18:27:00,75.7,61.7,30.09,West,279,0.0,1.0,62,0.00,,,0.00,42,HR-IXP-WINDi_r2_v1.2,2013-08-18 23:27:00,
2013-08-18 18:32:00,75.5,61.5,30.09,West,275,0.0,1.0,62,0.00,,,0.00,39,HR-IXP-WINDi_r2_v1.2,2013-08-18 23:32:00,
2013-08-18 18:37:00,75.2,61.2,30.09,SW,229,0.0,1.0,62,0.00,,,0.00,37,HR-IXP-WINDi_r2_v1.2,2013-08-18 23:37:00,
2013-08-18 18:42:00,75.0,61.5,30.09,SE,134,0.0,1.0,63,0.00,,,0.00,33,HR-IXP-WINDi_r2_v1.2,2013-08-18 23:42:00,
2013-08-18 18:47:00,74.7,61.2,30.09,SE,134,0.0,1.0,63,0.00,,,0.00,30,HR-IXP-WINDi_r2_v1.2,2013-08-18 23:47:00,
2013-08-18 18:53:00,74.5,61.5,30.09,SE,134,0.0,0.0,64,0.00,,,0.00,28,HR-IXP-WINDi_r2_v1.2,2013-08-18 23:53:00,
2013-08-18 18:58:00,74.2,61.6,30.09,SE,134,0.0,0.0,65,0.00,,,0.00,26,HR-IXP-WINDi_r2_v1.2,2013-08-18 23:58:00,
2013-08-18 19:03:00,73.9,60.9,30.09,ENE,57,0.0,1.0,64,0.00,,,0.00,21,HR-IXP-WINDi_r2_v1.2,2013-08-19 00:03:00,
2013-08-18 19:08:00,73.7,60.7,30.09,ENE,57,0.0,1.0,64,0.00,,,0.00,18,HR-IXP-WINDi_r2_v1.2,2013-08-19 00:08:00,
2013-08-18 19:14:00,73.4,60.9,30.09,ENE,57,1.0,1.0,65,0.00,,,0.00,14,HR-IXP-WINDi_r2_v1.2,2013-08-19 00:14:00,
2013-08-18 19:19:00,73.2,61.1,30.09,WNW,290,0.0,1.0,66,0.00,,,0.00,12,HR-IXP-WINDi_r2_v1.2,2013-08-19 00:19:00,
2013-08-18 19:24:00,73.0,60.5,30.10,WNW,290,0.0,1.0,65,0.00,,,0.00,11,HR-IXP-WINDi_r2_v1.2,2013-08-19 00:24:00,
2013-08-18 19:30:00,72.7,60.6,30.10,WNW,290,1.0,1.0,66,0.00,,,0.00,7,HR-IXP-WINDi_r2_v1.2,2013-08-19 00:30:00,
2013-08-18 19:35:00,72.5,60.0,30.10,WNW,290,0.0,1.0,65,0.00,,,0.00,0,HR-IXP-WINDi_r2_v1.2,2013-08-19 00:35:00,
2013-08-18 19:40:00,72.2,60.2,30.10,WNW,290,0.0,1.0,66,0.00,,,0.00,0,HR-IXP-WINDi_r2_v1.2,2013-08-19 00:40:00,
2013-08-18 19:45:00,71.9,60.3,30.10,WNW,290,0.0,1.0,67,0.00,,,0.00,0,HR-IXP-WINDi_r2_v1.2,2013-08-19 00:45:00,
2013-08-18 19:50:00,71.5,59.1,30.10,WNW,290,0.0,1.0,65,0.00,,,0.00,0,HR-IXP-WINDi_r2_v1.2,2013-08-19 00:50:00,
2013-08-18 19:56:00,71.2,58.8,30.10,WNW,290,0.0,1.0,65,0.00,,,0.00,0,HR-IXP-WINDi_r2_v1.2,2013-08-19 00:56:00,
2013-08-18 20:01:00,71.0,59.0,30.10,WNW,290,0.0,1.0,66,0.00,,,0.00,0,HR-IXP-WINDi_r2_v1.2,2013-08-19 01:01:00,
2013-08-18 20:06:00,70.7,58.7,30.10,WNW,290,0.0,1.0,66,0.00,,,0.00,0,HR-IXP-WINDi_r2_v1.2,2013-08-19 01:06:00,
2013-08-18 20:11:00,70.4,58.9,30.10,ENE,65,0.0,1.0,67,0.00,,,0.00,0,HR-IXP-WINDi_r2_v1.2,2013-08-19 01:11:00,
2013-08-18 20:17:00,70.2,58.3,30.09,ENE,65,0.0,1.0,66,0.00,,,0.00,0,HR-IXP-WINDi_r2_v1.2,2013-08-19 01:17:00,
2013-08-18 20:22:00,69.9,58.4,30.10,ENE,65,0.0,0.0,67,0.00,,,0.00,0,HR-IXP-WINDi_r2_v1.2,2013-08-19 01:22:00,
2013-08-18 20:27:00,69.7,58.6,30.10,ENE,65,0.0,0.0,68,0.00,,,0.00,0,HR-IXP-WINDi_r2_v1.2,2013-08-19 01:27:00,
2013-08-18 20:32:00,69.5,58.4,30.10,ENE,65,0.0,0.0,68,0.00,,,0.00,0,HR-IXP-WINDi_r2_v1.2,2013-08-19 01:32:00,
2013-08-18 20:37:00,69.3,57.8,30.10,ENE,65,0.0,0.0,67,0.00,,,0.00,0,HR-IXP-WINDi_r2_v1.2,2013-08-19 01:37:00,
2013-08-18 20:42:00,69.0,57.9,30.10,ENE,65,0.0,0.0,68,0.00,,,0.00,0,HR-IXP-WINDi_r2_v1.2,2013-08-19 01:42:00,
2013-08-18 20:48:00,68.8,57.7,30.10,ENE,65,0.0,0.0,68,0.00,,,0.00,0,HR-IXP-WINDi_r2_v1.2,2013-08-19 01:48:00,
2013-08-18 20:53:00,68.6,57.6,30.10,ENE,65,0.0,0.0,68,0.00,,,0.00,0,HR-IXP-WINDi_r2_v1.2,2013-08-19 01:53:00,
2013-08-18 20:58:00,68.3,57.7,30.10,ENE,65,0.0,0.0,69,0.00,,,0.00,0,HR-IXP-WINDi_r2_v1.2,2013-08-19 01:58:00,
2013-08-18 21:04:00,68.1,57.9,30.10,ENE,65,0.0,0.0,70,0.00,,,0.00,0,HR-IXP-WINDi_r2_v1.2,2013-08-19 02:04:00,
2013-08-18 21:09:00,67.9,57.7,30.10,ENE,65,0.0,0.0,70,0.00,,,0.00,0,HR-IXP-WINDi_r2_v1.2,2013-08-19 02:09:00,
2013-08-18 21:15:00,67.7,57.9,30.11,ENE,65,0.0,1.0,71,0.00,,,0.00,0,HR-IXP-WINDi_r2_v1.2,2013-08-19 02:15:00,
2013-08-18 21:20:00,67.6,58.2,30.11,ENE,65,0.0,1.0,72,0.00,,,0.00,0,HR-IXP-WINDi_r2_v1.2,2013-08-19 02:20:00,
2013-08-18 21:26:00,67.4,58.0,30.11,ENE,65,0.0,0.0,72,0.00,,,0.00,0,HR-IXP-WINDi_r2_v1.2,2013-08-19 02:26:00,
2013-08-18 21:31:00,67.2,57.8,30.11,ENE,65,0.0,0.0,72,0.00,,,0.00,0,HR-IXP-WINDi_r2_v1.2,2013-08-19 02:31:00,
2013-08-18 21:36:00,67.0,58.0,30.11,ENE,65,0.0,0.0,73,0.00,,,0.00,0,HR-IXP-WINDi_r2_v1.2,2013-08-19 02:36:00,
2013-08-18 21:41:00,66.8,58.2,30.11,ENE,65,0.0,0.0,74,0.00,,,0.00,0,HR-IXP-WINDi_r2_v1.2,2013-08-19 02:41:00,
2013-08-18 21:46:00,66.7,58.1,30.11,ENE,65,0.0,0.0,74,0.00,,,0.00,0,HR-IXP-WINDi_r2_v1.2,2013-08-19 02:46:00,
2013-08-18 21:51:00,66.5,58.3,30.11,ENE,65,0.0,0.0,75,0.00,,,0.00,0,HR-IXP-WINDi_r2_v1.2,2013-08-19 02:51:00,
2013-08-18 21:57:00,66.3,58.1,30.11,ENE,65,0.0,0.0,75,0.00,,,0.00,0,HR-IXP-WINDi_r2_v1.2,2013-08-19 02:57:00,
2013-08-18 22:02:00,66.2,58.3,30.11,ENE,65,0.0,0.0,76,0.00,,,0.00,0,HR-IXP-WINDi_r2_v1.2,2013-08-19 03:02:00,
2013-08-18 22:07:00,66.0,58.2,30.11,ENE,65,0.0,0.0,76,0.00,,,0.00,0,HR-IXP-WINDi_r2_v1.2,2013-08-19 03:07:00,
2013-08-18 22:12:00,65.9,58.4,30.10,ENE,65,0.0,0.0,77,0.00,,,0.00,0,HR-IXP-WINDi_r2_v1.2,2013-08-19 03:12:00,
2013-08-18 22:18:00,65.7,57.9,30.10,ENE,65,0.0,0.0,76,0.00,,,0.00,0,HR-IXP-WINDi_r2_v1.2,2013-08-19 03:18:00,
2013-08-18 22:23:00,65.6,58.1,30.10,ENE,65,0.0,0.0,77,0.00,,,0.00,0,HR-IXP-WINDi_r2_v1.2,2013-08-19 03:23:00,
2013-08-18 22:28:00,65.4,57.9,30.10,ENE,65,0.0,0.0,77,0.00,,,0.00,0,HR-IXP-WINDi_r2_v1.2,2013-08-19 03:28:00,
2013-08-18 22:33:00,65.3,57.8,30.10,ENE,65,0.0,0.0,77,0.00,,,0.00,0,HR-IXP-WINDi_r2_v1.2,2013-08-19 03:33:00,
2013-08-18 22:38:00,65.2,58.1,30.10,ENE,65,0.0,0.0,78,0.00,,,0.00,0,HR-IXP-WINDi_r2_v1.2,2013-08-19 03:38:00,
2013-08-18 22:43:00,65.0,57.9,30.10,ENE,65,0.0,0.0,78,0.00,,,0.00,0,HR-IXP-WINDi_r2_v1.2,2013-08-19 03:43:00,
2013-08-18 22:49:00,64.9,57.8,30.10,ENE,65,0.0,0.0,78,0.00,,,0.00,0,HR-IXP-WINDi_r2_v1.2,2013-08-19 03:49:00,
2013-08-18 22:54:00,64.8,58.1,30.10,ENE,65,0.0,0.0,79,0.00,,,0.00,0,HR-IXP-WINDi_r2_v1.2,2013-08-19 03:54:00,
2013-08-18 22:59:00,64.7,58.3,30.10,ENE,65,0.0,0.0,80,0.00,,,0.00,0,HR-IXP-WINDi_r2_v1.2,2013-08-19 03:59:00,
2013-08-18 23:01:00,64.6,58.2,30.10,ENE,65,0.0,0.0,80,0.00,,,0.00,0,HR-IXP-WINDi_r2_v1.2,2013-08-19 04:01:00,
2013-08-18 23:06:00,64.5,58.1,30.10,ENE,65,0.0,0.0,80,0.00,,,0.00,0,HR-IXP-WINDi_r2_v1.2,2013-08-19 04:06:00,
2013-08-18 23:11:00,64.4,58.0,30.10,ENE,65,0.0,0.0,80,0.00,,,0.00,0,HR-IXP-WINDi_r2_v1.2,2013-08-19 04:11:00,
2013-08-18 23:16:00,64.3,57.9,30.10,ENE,65,0.0,0.0,80,0.00,,,0.00,0,HR-IXP-WINDi_r2_v1.2,2013-08-19 04:16:00,
2013-08-18 23:21:00,64.1,58.1,30.10,ENE,65,0.0,0.0,81,0.00,,,0.00,0,HR-IXP-WINDi_r2_v1.2,2013-08-19 04:21:00,
2013-08-18 23:26:00,64.0,58.0,30.10,ENE,65,0.0,0.0,81,0.00,,,0.00,0,HR-IXP-WINDi_r2_v1.2,2013-08-19 04:26:00,
2013-08-18 23:32:00,63.9,58.2,30.10,ENE,65,0.0,0.0,82,0.00,,,0.00,0,HR-IXP-WINDi_r2_v1.2,2013-08-19 04:32:00,
2013-08-18 23:37:00,63.8,58.1,30.10,ENE,65,0.0,0.0,82,0.00,,,0.00,0,HR-IXP-WINDi_r2_v1.2,2013-08-19 04:37:00,
2013-08-18 23:42:00,63.7,58.0,30.10,ENE,65,0.0,0.0,82,0.00,,,0.00,0,HR-IXP-WINDi_r2_v1.2,2013-08-19 04:42:00,
2013-08-18 23:47:00,63.6,57.9,30.10,ENE,65,0.0,0.0,82,0.00,,,0.00,0,HR-IXP-WINDi_r2_v1.2,2013-08-19 04:47:00,
2013-08-18 23:53:00,63.5,58.2,30.10,ENE,65,0.0,0.0,83,0.00,,,0.00,0,HR-IXP-WINDi_r2_v1.2,2013-08-19 04:53:00,
2013-08-18 23:58:00,63.4,58.1,30.10,ENE,65,0.0,0.0,83,0.00,,,0.00,0,HR-IXP-WINDi_r2_v1.2,2013-08-19 04:58:00,